This is the latest recevied weather packets stored in our database for station/object W0AKY-13. If no packets are shown the sender has not sent any weather packets the latest 10 day(s).
| Time | Temp. | Humidity | Pressure | Rain* | Wind** | Luminosity | Snow |
|---|---|---|---|---|---|---|---|
| 1788470790 | 36.67° C | 48% | 1010.7 hPa | 0 mm | - | 329 W/m² | - |
| 1788470486 | 36.67° C | 51% | 1010.8 hPa | 0 mm | - | 344 W/m² | - |
| 1788470180 | 36.67° C | 49% | 1010.9 hPa | 0 mm | - | 354 W/m² | - |
| 1788469877 | 36.67° C | 50% | 1010.6 hPa | 0 mm | - | 365 W/m² | - |
| 1788469572 | 37.22° C | 51% | 1010.5 hPa | 0 mm | - | 379 W/m² | - |
| 1788469268 | 37.22° C | 49% | 1010.9 hPa | 0 mm | - | 384 W/m² | - |
| 1788468967 | 37.22° C | 50% | 1010.9 hPa | 0 mm | - | 393 W/m² | - |
| 1788468667 | 36.11° C | 50% | 1010.8 hPa | 0 mm | - | 405 W/m² | - |
| 1788468363 | 36.11° C | 50% | 1011.1 hPa | 0 mm | - | 414 W/m² | - |
| 1788468058 | 36.11° C | 51% | 1011 hPa | 0 mm | - | 426 W/m² | - |
| 1788467754 | 35° C | 55% | 1010.8 hPa | 0 mm | - | 458 W/m² | - |
| 1788467448 | 35° C | 54% | 1010.8 hPa | 0 mm | - | 165 W/m² | - |
| 1788467144 | 34.44° C | 53% | 1011.1 hPa | 0 mm | - | 303 W/m² | - |
| 1788466839 | 34.44° C | 53% | 1010.9 hPa | 0 mm | - | 148 W/m² | - |
| 1788466533 | 34.44° C | 53% | 1010.9 hPa | 0 mm | - | 177 W/m² | - |
| 1788466232 | 34.44° C | 53% | 1010.7 hPa | 0 mm | - | 160 W/m² | - |
| 1788465927 | 34.44° C | 53% | 1011 hPa | 0 mm | - | 162 W/m² | - |
| 1788465623 | 35° C | 54% | 1011 hPa | 0 mm | - | 153 W/m² | - |
| 1788465319 | 35° C | 52% | 1011.2 hPa | 0 mm | - | 160 W/m² | - |
| 1788465014 | 35.56° C | 52% | 1011.2 hPa | 0 mm | - | 321 W/m² | - |
| 1788464709 | 36.11° C | 50% | 1011.5 hPa | 0 mm | - | 173 W/m² | - |
| 1788464404 | 36.67° C | 48% | 1011.2 hPa | 0 mm | - | 534 W/m² | - |
| 1788464101 | 36.11° C | 51% | 1011 hPa | 0 mm | - | 525 W/m² | - |
| 1788463795 | 35.56° C | 50% | 1011.5 hPa | 0 mm | - | 524 W/m² | - |
| 1788463493 | 35.56° C | 50% | 1011.2 hPa | 0 mm | - | 524 W/m² | - |
* Rain latest hour (hover to see other rain measurements)
** Current wind speed in m/s (hover to see current wind gust speed)